Location: Newark
(21.1200°N, 73.4000°E)
Time: 01:57:14
(UTC+00:00)

SR - Pass Details

Date: 04 February 2020
Orbit: 575 x 881 km, 66.7° (Epoch: 21 February)

Event Time Altitude Azimuth Distance (km) Brightness Sun altitude
Rises 14:02:05 0° 206° (SSW) 3,311 ? -15.3°
Reaches altitude 10° 14:04:28 10° 208° (SSW) 2,419 ? -15.8°
Maximum altitude 14:10:05 73° 292° (WNW) 897 ? -17.1°
Drops below altitude 10° 14:16:00 10° 17° (NNE) 2,530 ? -18.5°
Enters shadow 14:16:56 - 18° (NNE) 2,875 ? -18.7°
Sets 14:18:32 0° 20° (NNE) 3,473 - -19.0°
